This is the latest recevied weather packets stored in our database for station/object OE-11053. If no packets are shown the sender has not sent any weather packets the latest 10 day(s).
| Time | Temp. | Humidity | Pressure | Rain* | Wind** | Luminosity | Snow |
|---|---|---|---|---|---|---|---|
| 1788633324 | 19.44° C | 67% | 1022.1 hPa | 0 mm | - | 0 W/m² | - |
| 1788632724 | 19.44° C | 66% | 1021.9 hPa | 0 mm | - | 0 W/m² | - |
| 1788631897 | 19.44° C | 65% | 1021.9 hPa | 0 mm | - | 0 W/m² | - |
| 1788630924 | 20° C | 65% | 1021.6 hPa | 0 mm | - | 6 W/m² | - |
| 1788630097 | 20° C | 64% | 1021.5 hPa | 0 mm | - | 13 W/m² | - |
| 1788629724 | 20.56° C | 62% | 1021.3 hPa | 0 mm | - | 19 W/m² | - |
| 1788629124 | 20.56° C | 61% | 1021.3 hPa | 0 mm | - | 26 W/m² | - |
| 1788628298 | 21.11° C | 60% | 1021.2 hPa | 0 mm | - | 26 W/m² | - |
| 1788627924 | 21.11° C | 60% | 1021.2 hPa | 0 mm | - | 32 W/m² | - |
| 1788627324 | 21.67° C | 60% | 1021.1 hPa | 0 mm | - | 32 W/m² | - |
| 1788626124 | 21.67° C | 59% | 1021.1 hPa | 0 mm | - | 38 W/m² | - |
| 1788625524 | 21.67° C | 59% | 1021 hPa | 0 mm | - | 38 W/m² | - |
| 1788624697 | 21.67° C | 59% | 1020.9 hPa | 0 mm | - | 45 W/m² | - |
| 1788624324 | 21.67° C | 59% | 1020.9 hPa | 0 mm | - | 51 W/m² | - |
| 1788623725 | 21.67° C | 59% | 1020.9 hPa | 0 mm | - | 109 W/m² | - |
| 1788621924 | 21.67° C | 59% | 1021 hPa | 0 mm | - | 364 W/m² | - |
| 1788621097 | 22.22° C | 58% | 1020.9 hPa | 0 mm | - | 390 W/m² | - |
| 1788620124 | 22.22° C | 59% | 1020.8 hPa | 0 mm | - | 448 W/m² | - |
| 1788619297 | 22.22° C | 60% | 1020.8 hPa | 0 mm | - | 473 W/m² | - |
| 1788618924 | 22.22° C | 61% | 1020.9 hPa | 0 mm | - | 492 W/m² | - |
| 1788618324 | 22.22° C | 61% | 1020.9 hPa | 0 mm | - | 531 W/m² | - |
| 1788617497 | 22.78° C | 58% | 1021 hPa | 0 mm | - | 627 W/m² | - |
| 1788617124 | 22.22° C | 59% | 1021.1 hPa | 0 mm | - | 639 W/m² | - |
| 1788616524 | 22.22° C | 58% | 1021 hPa | 0 mm | - | 454 W/m² | - |
| 1788615697 | 22.22° C | 58% | 1021 hPa | 0 mm | - | 627 W/m² | - |
* Rain latest hour (hover to see other rain measurements)
** Current wind speed in m/s (hover to see current wind gust speed)